Time,TemperatureF,DewpointF,PressureIn,WindDirection,WindDirectionDegrees,WindSpeedMPH,WindSpeedGustMPH,Humidity,HourlyPrecipIn,Conditions,Clouds,dailyrainin,SoftwareType,DateUTC
2013-07-24 00:02:00,74.5,66.8,28.85,ESE,117,0.0,0.0,77,0.00,,SKC,0.00,VWS V14.00,2013-07-24 04:02:00,
2013-07-24 00:07:00,74.5,66.8,28.85,ESE,117,0.0,0.0,77,0.00,,SKC,0.00,VWS V14.00,2013-07-24 04:07:00,
2013-07-24 00:10:00,74.3,66.6,28.85,SSE,157,0.0,3.1,77,0.00,,SKC,0.00,VWS V14.00,2013-07-24 04:10:00,
2013-07-24 00:17:00,74.3,66.6,28.85,SSW,208,0.0,3.6,77,0.00,,SKC,0.00,VWS V14.00,2013-07-24 04:17:00,
2013-07-24 00:20:00,74.3,66.6,28.85,East,90,0.0,4.9,77,0.00,,SKC,0.00,VWS V14.00,2013-07-24 04:20:00,
2013-07-24 00:27:00,74.3,66.6,28.85,ESE,111,0.0,3.6,77,0.00,,SKC,0.00,VWS V14.00,2013-07-24 04:27:00,
2013-07-24 00:32:00,74.3,66.6,28.85,SE,133,0.0,0.0,77,0.00,,SKC,0.00,VWS V14.00,2013-07-24 04:32:00,
2013-07-24 00:37:00,74.1,66.5,28.85,SSE,165,0.0,0.0,77,0.00,,SKC,0.00,VWS V14.00,2013-07-24 04:37:00,
2013-07-24 00:42:00,74.1,66.8,28.85,SSE,161,2.7,2.7,78,0.00,,SKC,0.00,VWS V14.00,2013-07-24 04:42:00,
2013-07-24 00:47:00,74.1,66.8,28.85,South,174,0.0,5.4,78,0.00,,SKC,0.00,VWS V14.00,2013-07-24 04:47:00,
2013-07-24 00:52:00,74.1,66.8,28.82,SE,124,0.0,0.0,78,0.00,,SKC,0.00,VWS V14.00,2013-07-24 04:52:00,
2013-07-24 00:57:00,74.1,66.8,28.82,ESE,122,0.0,0.0,78,0.00,,SKC,0.00,VWS V14.00,2013-07-24 04:57:00,
2013-07-24 01:02:00,74.1,66.8,28.82,NW,320,0.0,0.0,78,0.00,,SKC,0.00,VWS V14.00,2013-07-24 05:02:00,
2013-07-24 01:07:00,74.1,66.8,28.82,ESE,117,0.0,0.0,78,0.00,,SKC,0.00,VWS V14.00,2013-07-24 05:07:00,
2013-07-24 01:12:00,74.1,66.8,28.82,SE,131,0.0,0.0,78,0.00,,SKC,0.00,VWS V14.00,2013-07-24 05:12:00,
2013-07-24 01:17:00,74.1,66.8,28.82,SSE,148,4.3,4.3,78,0.00,,SKC,0.00,VWS V14.00,2013-07-24 05:17:00,
2013-07-24 01:22:00,74.1,66.8,28.82,SE,140,0.0,0.0,78,0.00,,SKC,0.00,VWS V14.00,2013-07-24 05:22:00,
2013-07-24 01:27:00,74.1,67.2,28.82,SE,140,0.0,0.0,79,0.00,,SKC,0.00,VWS V14.00,2013-07-24 05:27:00,
2013-07-24 01:32:00,74.1,67.2,28.82,ENE,61,0.0,0.0,79,0.00,,SKC,0.00,VWS V14.00,2013-07-24 05:32:00,
2013-07-24 01:37:00,74.1,67.2,28.82,WNW,283,0.0,0.0,79,0.00,,SKC,0.00,VWS V14.00,2013-07-24 05:37:00,
2013-07-24 01:42:00,74.1,67.2,28.82,SW,236,0.0,0.0,79,0.00,,SKC,0.00,VWS V14.00,2013-07-24 05:42:00,
2013-07-24 01:47:00,74.1,67.2,28.82,SW,220,0.0,0.0,79,0.00,,SKC,0.00,VWS V14.00,2013-07-24 05:47:00,
2013-07-24 01:52:00,74.1,67.2,28.82,SW,220,0.0,0.0,79,0.00,,SKC,0.00,VWS V14.00,2013-07-24 05:52:00,
2013-07-24 01:57:00,74.1,67.2,28.82,North,353,0.0,3.1,79,0.00,,SKC,0.00,VWS V14.00,2013-07-24 05:57:00,
2013-07-24 02:02:00,74.1,67.2,28.82,SSW,209,0.0,0.0,79,0.00,,SKC,0.00,VWS V14.00,2013-07-24 06:02:00,
2013-07-24 02:07:00,74.1,67.2,28.82,SSW,209,0.0,0.0,79,0.00,,SKC,0.00,VWS V14.00,2013-07-24 06:07:00,
2013-07-24 02:12:00,74.1,67.2,28.82,North,357,0.0,0.0,79,0.00,,SKC,0.00,VWS V14.00,2013-07-24 06:12:00,
2013-07-24 02:17:00,74.1,67.2,28.82,SSE,154,0.0,3.1,79,0.00,,SKC,0.00,VWS V14.00,2013-07-24 06:17:00,
2013-07-24 02:22:00,73.9,67.0,28.82,NE,39,0.0,0.0,79,0.00,,SKC,0.00,VWS V14.00,2013-07-24 06:22:00,
2013-07-24 02:27:00,73.9,67.4,28.82,SE,142,0.0,2.2,80,0.00,,SKC,0.00,VWS V14.00,2013-07-24 06:27:00,
2013-07-24 02:32:00,73.9,67.4,28.82,ESE,114,3.2,4.9,80,0.00,,SKC,0.00,VWS V14.00,2013-07-24 06:32:00,
2013-07-24 02:37:00,73.9,67.4,28.82,ESE,118,0.0,4.9,80,0.00,,SKC,0.00,VWS V14.00,2013-07-24 06:37:00,
2013-07-24 02:42:00,73.9,67.4,28.82,SSE,153,0.0,0.0,80,0.00,,SKC,0.00,VWS V14.00,2013-07-24 06:42:00,
2013-07-24 02:47:00,73.9,67.4,28.82,ESE,110,0.0,2.7,80,0.00,,SKC,0.00,VWS V14.00,2013-07-24 06:47:00,
2013-07-24 02:52:00,73.9,67.4,28.82,South,170,0.0,0.0,80,0.00,,SKC,0.00,VWS V14.00,2013-07-24 06:52:00,
2013-07-24 02:57:00,73.9,67.4,28.82,SSW,198,4.8,4.8,80,0.00,,SKC,0.00,VWS V14.00,2013-07-24 06:57:00,
2013-07-24 03:02:00,74.1,67.6,28.82,SSE,167,0.0,0.0,80,0.00,,SKC,0.00,VWS V14.00,2013-07-24 07:02:00,
2013-07-24 03:07:00,73.9,67.4,28.82,South,184,2.7,5.4,80,0.00,,SKC,0.00,VWS V14.00,2013-07-24 07:07:00,
2013-07-24 03:12:00,73.9,67.4,28.82,SE,137,4.8,4.8,80,0.00,,SKC,0.00,VWS V14.00,2013-07-24 07:12:00,
2013-07-24 03:17:00,73.9,67.4,28.82,ESE,104,0.0,4.0,80,0.00,,SKC,0.00,VWS V14.00,2013-07-24 07:17:00,
2013-07-24 03:22:00,73.9,67.4,28.82,SSW,202,0.0,4.9,80,0.00,,SKC,0.00,VWS V14.00,2013-07-24 07:22:00,
2013-07-24 03:27:00,73.9,67.4,28.82,South,181,0.0,4.9,80,0.00,,SKC,0.00,VWS V14.00,2013-07-24 07:27:00,
2013-07-24 03:32:00,73.8,67.2,28.82,South,180,0.0,3.6,80,0.00,,SKC,0.00,VWS V14.00,2013-07-24 07:32:00,
2013-07-24 03:37:00,73.8,67.6,28.82,SE,125,0.0,3.6,81,0.00,,SKC,0.00,VWS V14.00,2013-07-24 07:37:00,
2013-07-24 03:42:00,73.6,67.4,28.82,East,96,0.0,0.0,81,0.00,,SKC,0.00,VWS V14.00,2013-07-24 07:42:00,
2013-07-24 03:47:00,73.6,67.4,28.82,SE,133,0.0,4.0,81,0.00,,SKC,0.00,VWS V14.00,2013-07-24 07:47:00,
2013-07-24 03:52:00,73.4,67.2,28.79,SSE,160,0.0,0.0,81,0.00,,SKC,0.00,VWS V14.00,2013-07-24 07:52:00,
2013-07-24 03:57:00,73.4,67.2,28.79,East,93,0.0,3.1,81,0.00,,SKC,0.00,VWS V14.00,2013-07-24 07:57:00,
2013-07-24 04:02:00,73.4,67.2,28.79,East,93,0.0,0.0,81,0.00,,SKC,0.00,VWS V14.00,2013-07-24 08:02:00,
2013-07-24 04:07:00,73.2,67.1,28.79,East,93,0.0,0.0,81,0.00,,SKC,0.00,VWS V14.00,2013-07-24 08:07:00,
2013-07-24 04:12:00,73.2,67.1,28.79,East,93,0.0,0.0,81,0.00,,SKC,0.00,VWS V14.00,2013-07-24 08:12:00,
2013-07-24 04:17:00,73.0,66.9,28.79,East,93,0.0,0.0,81,0.00,,SKC,0.00,VWS V14.00,2013-07-24 08:17:00,
2013-07-24 04:22:00,73.0,66.9,28.79,SE,129,3.2,3.2,81,0.00,,SKC,0.00,VWS V14.00,2013-07-24 08:22:00,
2013-07-24 04:28:00,73.0,67.2,28.79,SSE,149,0.0,3.1,82,0.00,,SKC,0.00,VWS V14.00,2013-07-24 08:28:00,
2013-07-24 04:33:00,72.9,67.1,28.79,ESE,116,0.0,3.6,82,0.00,,SKC,0.00,VWS V14.00,2013-07-24 08:33:00,
2013-07-24 04:38:00,72.9,67.1,28.79,NNE,29,0.0,3.6,82,0.00,,SKC,0.00,VWS V14.00,2013-07-24 08:38:00,
2013-07-24 04:43:00,72.9,67.1,28.79,NNE,29,0.0,0.0,82,0.00,,SKC,0.00,VWS V14.00,2013-07-24 08:43:00,
2013-07-24 04:48:00,72.9,67.1,28.79,SSE,159,0.0,0.0,82,0.00,,SKC,0.00,VWS V14.00,2013-07-24 08:48:00,
2013-07-24 04:53:00,72.7,66.9,28.79,SSE,159,0.0,0.0,82,0.00,,SKC,0.00,VWS V14.00,2013-07-24 08:53:00,
2013-07-24 04:58:00,72.7,66.9,28.79,SSE,159,0.0,0.0,82,0.00,,SKC,0.00,VWS V14.00,2013-07-24 08:58:00,
2013-07-24 05:03:00,72.7,66.9,28.79,SSE,159,0.0,0.0,82,0.00,,SKC,0.00,VWS V14.00,2013-07-24 09:03:00,
2013-07-24 05:08:00,72.5,66.7,28.79,SE,141,0.0,0.0,82,0.00,,SKC,0.00,VWS V14.00,2013-07-24 09:08:00,
2013-07-24 05:13:00,72.5,66.7,28.79,SE,141,0.0,0.0,82,0.00,,SKC,0.00,VWS V14.00,2013-07-24 09:13:00,
2013-07-24 05:18:00,72.5,66.7,28.79,WSW,254,0.0,0.0,82,0.00,,SKC,0.00,VWS V14.00,2013-07-24 09:18:00,
2013-07-24 05:23:00,72.5,66.7,28.82,WSW,254,0.0,0.0,82,0.00,,SKC,0.00,VWS V14.00,2013-07-24 09:23:00,
2013-07-24 05:28:00,72.5,66.7,28.82,SE,131,0.0,0.0,82,0.00,,SKC,0.00,VWS V14.00,2013-07-24 09:28:00,
2013-07-24 05:33:00,72.7,67.2,28.82,SE,131,0.0,0.0,83,0.00,,SKC,0.00,VWS V14.00,2013-07-24 09:33:00,
2013-07-24 05:38:00,72.7,67.2,28.82,South,186,0.0,0.0,83,0.00,,SKC,0.00,VWS V14.00,2013-07-24 09:38:00,
2013-07-24 05:43:00,72.7,67.2,28.82,SSE,150,0.0,2.7,83,0.00,,SKC,0.00,VWS V14.00,2013-07-24 09:43:00,
2013-07-24 05:48:00,72.9,67.4,28.82,SSW,192,0.0,4.5,83,0.00,,SKC,0.00,VWS V14.00,2013-07-24 09:48:00,
2013-07-24 05:53:00,72.9,67.4,28.82,SSW,202,3.8,3.8,83,0.00,,SKC,0.00,VWS V14.00,2013-07-24 09:53:00,
2013-07-24 05:58:00,72.7,67.2,28.82,SE,141,0.0,3.1,83,0.00,,SKC,0.00,VWS V14.00,2013-07-24 09:58:00,
2013-07-24 06:03:00,72.7,67.2,28.82,SE,125,0.0,0.0,83,0.00,,SKC,0.00,VWS V14.00,2013-07-24 10:03:00,
2013-07-24 06:08:00,72.7,67.2,28.82,SE,136,0.0,0.0,83,0.00,,SKC,0.00,VWS V14.00,2013-07-24 10:08:00,
2013-07-24 06:13:00,72.5,67.1,28.82,SE,136,0.0,0.0,83,0.00,,SKC,0.00,VWS V14.00,2013-07-24 10:13:00,
2013-07-24 06:18:00,72.5,67.1,28.82,SE,136,0.0,0.0,83,0.00,,SKC,0.00,VWS V14.00,2013-07-24 10:18:00,
2013-07-24 06:23:00,72.5,67.1,28.82,SE,136,0.0,0.0,83,0.00,,SKC,0.00,VWS V14.00,2013-07-24 10:23:00,
2013-07-24 06:28:00,72.5,67.1,28.82,SE,136,0.0,0.0,83,0.00,,SKC,0.00,VWS V14.00,2013-07-24 10:28:00,
2013-07-24 06:33:00,72.5,67.4,28.82,SE,136,0.0,0.0,84,0.00,,SKC,0.00,VWS V14.00,2013-07-24 10:33:00,
2013-07-24 06:38:00,72.5,67.4,28.82,SE,136,0.0,0.0,84,0.00,,SKC,0.00,VWS V14.00,2013-07-24 10:38:00,
2013-07-24 06:43:00,72.5,67.4,28.82,South,174,0.0,0.0,84,0.00,,SKC,0.00,VWS V14.00,2013-07-24 10:43:00,
2013-07-24 06:48:00,72.5,67.4,28.82,East,81,0.0,0.0,84,0.00,,SKC,0.00,VWS V14.00,2013-07-24 10:48:00,
2013-07-24 06:53:00,72.5,67.4,28.82,SE,125,0.0,0.0,84,0.00,,SKC,0.00,VWS V14.00,2013-07-24 10:53:00,
2013-07-24 06:58:00,72.7,67.6,28.82,ESE,111,0.0,0.0,84,0.00,,SKC,0.00,VWS V14.00,2013-07-24 10:58:00,
2013-07-24 07:03:00,72.7,67.6,28.82,ESE,118,0.0,2.2,84,0.00,,SKC,0.00,VWS V14.00,2013-07-24 11:03:00,
2013-07-24 07:08:00,72.7,67.6,28.82,ESE,119,0.0,2.2,84,0.00,,SKC,0.00,VWS V14.00,2013-07-24 11:08:00,
2013-07-24 07:13:00,72.7,67.6,28.82,SSE,166,0.0,2.2,84,0.00,,SKC,0.00,VWS V14.00,2013-07-24 11:13:00,
2013-07-24 07:18:00,72.9,67.8,28.82,SE,144,0.0,3.6,84,0.00,,SKC,0.00,VWS V14.00,2013-07-24 11:18:00,
2013-07-24 07:23:00,72.9,68.1,28.82,South,183,3.2,4.0,85,0.00,,SKC,0.00,VWS V14.00,2013-07-24 11:23:00,
2013-07-24 07:28:00,73.0,68.3,28.82,SE,142,0.0,4.0,85,0.00,,SKC,0.00,VWS V14.00,2013-07-24 11:28:00,
2013-07-24 07:33:00,73.2,68.4,28.82,SSE,156,3.2,4.9,85,0.00,,SKC,0.00,VWS V14.00,2013-07-24 11:33:00,
2013-07-24 07:38:00,73.4,68.6,28.82,South,173,3.2,4.9,85,0.00,,SKC,0.00,VWS V14.00,2013-07-24 11:38:00,
2013-07-24 07:43:00,73.6,68.8,28.82,South,184,0.0,0.0,85,0.00,,SKC,0.00,VWS V14.00,2013-07-24 11:43:00,
2013-07-24 07:48:00,73.8,69.0,28.82,SE,132,0.0,3.1,85,0.00,,SKC,0.00,VWS V14.00,2013-07-24 11:48:00,
2013-07-24 07:53:00,73.9,69.2,28.82,SSW,198,0.0,3.1,85,0.00,,SKC,0.00,VWS V14.00,2013-07-24 11:53:00,
2013-07-24 07:58:00,74.1,69.3,28.82,SSW,210,0.0,3.1,85,0.00,,SKC,0.00,VWS V14.00,2013-07-24 11:58:00,
2013-07-24 08:03:00,74.3,69.5,28.82,South,184,0.0,0.0,85,0.00,,SKC,0.00,VWS V14.00,2013-07-24 12:03:00,
2013-07-24 08:08:00,74.3,69.5,28.82,SSW,202,3.2,3.6,85,0.00,,SKC,0.00,VWS V14.00,2013-07-24 12:08:00,
2013-07-24 08:13:00,74.5,69.7,28.82,South,186,4.3,4.9,85,0.00,,SKC,0.00,VWS V14.00,2013-07-24 12:13:00,
2013-07-24 08:18:00,74.7,69.9,28.82,SE,146,0.0,4.9,85,0.00,,SKC,0.00,VWS V14.00,2013-07-24 12:18:00,
2013-07-24 08:28:00,75.2,70.0,28.82,SSE,160,0.0,3.6,84,0.00,,SKC,0.00,VWS V14.00,2013-07-24 12:28:00,
2013-07-24 08:33:00,75.4,70.2,28.82,SE,140,0.0,4.0,84,0.00,,SKC,0.00,VWS V14.00,2013-07-24 12:33:00,
2013-07-24 08:38:00,75.6,70.4,28.85,SSE,147,0.0,4.0,84,0.00,,SKC,0.00,VWS V14.00,2013-07-24 12:38:00,
2013-07-24 08:43:00,75.9,70.7,28.85,SSE,147,0.0,0.0,84,0.00,,SKC,0.00,VWS V14.00,2013-07-24 12:43:00,
2013-07-24 08:48:00,76.3,71.1,28.85,SSE,147,0.0,0.0,84,0.00,,SKC,0.00,VWS V14.00,2013-07-24 12:48:00,
2013-07-24 08:53:00,76.6,71.4,28.85,SE,125,4.3,4.3,84,0.00,,SKC,0.00,VWS V14.00,2013-07-24 12:53:00,
2013-07-24 08:58:00,76.8,71.6,28.85,SSE,148,0.0,3.6,84,0.00,,SKC,0.00,VWS V14.00,2013-07-24 12:58:00,
2013-07-24 09:03:00,77.0,71.4,28.85,SSE,149,0.0,0.0,83,0.00,,SKC,0.00,VWS V14.00,2013-07-24 13:03:00,
2013-07-24 09:08:00,77.0,71.4,28.85,SSE,149,0.0,0.0,83,0.00,,SKC,0.00,VWS V14.00,2013-07-24 13:08:00,
2013-07-24 09:13:00,76.8,71.3,28.85,SSE,148,0.0,0.0,83,0.00,,SKC,0.00,VWS V14.00,2013-07-24 13:13:00,
2013-07-24 09:18:00,76.6,71.1,28.85,SSE,149,0.0,0.0,83,0.00,,SKC,0.00,VWS V14.00,2013-07-24 13:18:00,
2013-07-24 09:23:00,76.6,70.7,28.85,SSE,148,0.0,0.0,82,0.00,,SKC,0.00,VWS V14.00,2013-07-24 13:23:00,
2013-07-24 09:28:00,76.6,70.7,28.85,SSE,148,0.0,0.0,82,0.00,,SKC,0.00,VWS V14.00,2013-07-24 13:28:00,
2013-07-24 09:33:00,76.6,70.7,28.85,SSE,149,0.0,0.0,82,0.00,,SKC,0.00,VWS V14.00,2013-07-24 13:33:00,
2013-07-24 09:38:00,76.8,70.9,28.85,SSE,149,0.0,0.0,82,0.00,,SKC,0.00,VWS V14.00,2013-07-24 13:38:00,
2013-07-24 09:43:00,77.4,71.4,28.85,SSE,149,0.0,0.0,82,0.00,,SKC,0.00,VWS V14.00,2013-07-24 13:43:00,
2013-07-24 09:48:00,77.7,71.8,28.85,SSE,149,0.0,0.0,82,0.00,,SKC,0.00,VWS V14.00,2013-07-24 13:48:00,
2013-07-24 09:53:00,77.9,72.0,28.85,SSE,149,0.0,0.0,82,0.00,,SKC,0.00,VWS V14.00,2013-07-24 13:53:00,
2013-07-24 09:59:00,78.1,72.1,28.85,South,188,0.0,0.0,82,0.00,,SKC,0.00,VWS V14.00,2013-07-24 13:59:00,
2013-07-24 10:04:00,78.1,71.8,28.85,South,188,0.0,0.0,81,0.00,,SKC,0.00,VWS V14.00,2013-07-24 14:04:00,
2013-07-24 10:09:00,78.1,71.8,28.85,South,187,0.0,0.0,81,0.00,,SKC,0.00,VWS V14.00,2013-07-24 14:09:00,
2013-07-24 10:14:00,78.3,72.0,28.85,South,191,0.0,0.0,81,0.00,,SKC,0.00,VWS V14.00,2013-07-24 14:14:00,
2013-07-24 10:19:00,78.8,72.5,28.85,South,191,0.0,0.0,81,0.00,,SKC,0.00,VWS V14.00,2013-07-24 14:19:00,
2013-07-24 10:24:00,79.0,72.3,28.85,South,191,0.0,0.0,80,0.00,,SKC,0.00,VWS V14.00,2013-07-24 14:24:00,
2013-07-24 10:29:00,78.6,71.9,28.85,South,191,0.0,0.0,80,0.00,,SKC,0.00,VWS V14.00,2013-07-24 14:29:00,
2013-07-24 10:34:00,78.3,71.6,28.85,South,191,0.0,0.0,80,0.00,,SKC,0.00,VWS V14.00,2013-07-24 14:34:00,
2013-07-24 10:39:00,78.1,71.0,28.85,South,191,0.0,0.0,79,0.00,,SKC,0.00,VWS V14.00,2013-07-24 14:39:00,
2013-07-24 10:44:00,78.3,71.2,28.85,South,191,0.0,0.0,79,0.00,,SKC,0.00,VWS V14.00,2013-07-24 14:44:00,
2013-07-24 10:49:00,78.3,71.2,28.85,South,191,0.0,0.0,79,0.00,,SKC,0.00,VWS V14.00,2013-07-24 14:49:00,
2013-07-24 10:54:00,78.6,71.6,28.85,SSE,150,0.0,0.0,79,0.00,,SKC,0.00,VWS V14.00,2013-07-24 14:54:00,
2013-07-24 10:59:00,79.2,72.1,28.85,SSE,149,0.0,0.0,79,0.00,,SKC,0.00,VWS V14.00,2013-07-24 14:59:00,
2013-07-24 11:04:00,79.3,71.9,28.85,SSE,150,0.0,0.0,78,0.00,,SKC,0.00,VWS V14.00,2013-07-24 15:04:00,
2013-07-24 11:09:00,79.3,71.9,28.85,SSE,150,0.0,0.0,78,0.00,,SKC,0.00,VWS V14.00,2013-07-24 15:09:00,
2013-07-24 11:14:00,79.5,72.1,28.85,SSE,149,0.0,0.0,78,0.00,,SKC,0.00,VWS V14.00,2013-07-24 15:14:00,
2013-07-24 11:19:00,79.5,72.1,28.85,SSE,149,0.0,0.0,78,0.00,,SKC,0.00,VWS V14.00,2013-07-24 15:19:00,
2013-07-24 11:24:00,79.2,71.3,28.85,SSE,150,0.0,0.0,77,0.00,,SKC,0.00,VWS V14.00,2013-07-24 15:24:00,
2013-07-24 11:29:00,78.8,71.0,28.85,SSE,150,0.0,0.0,77,0.00,,SKC,0.00,VWS V14.00,2013-07-24 15:29:00,
2013-07-24 11:34:00,78.8,71.0,28.85,East,90,0.0,0.0,77,0.00,,SKC,0.00,VWS V14.00,2013-07-24 15:34:00,
2013-07-24 11:39:00,79.0,71.2,28.85,East,90,0.0,0.0,77,0.00,,SKC,0.00,VWS V14.00,2013-07-24 15:39:00,
2013-07-24 11:44:00,79.2,71.3,28.85,East,90,0.0,0.0,77,0.00,,SKC,0.00,VWS V14.00,2013-07-24 15:44:00,
2013-07-24 11:49:00,79.7,72.2,28.85,East,90,0.0,0.0,78,0.00,,SKC,0.00,VWS V14.00,2013-07-24 15:49:00,
2013-07-24 11:54:00,80.2,72.8,28.85,SSE,148,0.0,2.7,78,0.00,,SKC,0.00,VWS V14.00,2013-07-24 15:54:00,
2013-07-24 11:59:00,80.6,72.7,28.85,SSE,148,0.0,2.7,77,0.00,,SKC,0.00,VWS V14.00,2013-07-24 15:59:00,
2013-07-24 12:04:00,81.0,73.1,28.85,SSE,149,0.0,0.0,77,0.00,,SKC,0.00,VWS V14.00,2013-07-24 16:04:00,
2013-07-24 12:09:00,81.3,73.4,28.85,SSE,150,0.0,0.0,77,0.00,,SKC,0.00,VWS V14.00,2013-07-24 16:09:00,
2013-07-24 12:14:00,81.7,73.4,28.85,SSE,150,0.0,0.0,76,0.00,,SKC,0.00,VWS V14.00,2013-07-24 16:14:00,
2013-07-24 12:19:00,82.4,73.7,28.85,NE,54,0.0,0.0,75,0.00,,SKC,0.00,VWS V14.00,2013-07-24 16:19:00,
2013-07-24 12:24:00,82.6,73.9,28.85,South,173,0.0,0.0,75,0.00,,SKC,0.00,VWS V14.00,2013-07-24 16:24:00,
2013-07-24 12:29:00,82.6,73.9,28.85,SE,132,0.0,2.7,75,0.00,,SKC,0.00,VWS V14.00,2013-07-24 16:29:00,
2013-07-24 12:34:00,82.8,73.6,28.85,SE,125,0.0,0.0,74,0.00,,SKC,0.00,VWS V14.00,2013-07-24 16:34:00,
2013-07-24 12:39:00,83.1,74.0,28.85,SE,127,0.0,0.0,74,0.00,,SKC,0.00,VWS V14.00,2013-07-24 16:39:00,
2013-07-24 12:44:00,83.7,74.5,28.85,WSW,244,3.8,3.8,74,0.00,,SKC,0.00,VWS V14.00,2013-07-24 16:44:00,
2013-07-24 12:49:00,83.7,74.1,28.85,SSE,150,0.0,3.1,73,0.00,,SKC,0.00,VWS V14.00,2013-07-24 16:49:00,
2013-07-24 12:54:00,83.3,72.9,28.85,South,171,0.0,4.9,71,0.00,,SKC,0.00,VWS V14.00,2013-07-24 16:54:00,
2013-07-24 12:59:00,83.1,72.8,28.85,SSW,196,0.0,4.9,71,0.00,,SKC,0.00,VWS V14.00,2013-07-24 16:59:00,
2013-07-24 13:04:00,82.8,72.4,28.85,North,3,0.0,2.2,71,0.00,,SKC,0.00,VWS V14.00,2013-07-24 17:04:00,
2013-07-24 13:09:00,82.8,72.4,28.85,North,2,0.0,2.2,71,0.00,,SKC,0.00,VWS V14.00,2013-07-24 17:09:00,
2013-07-24 13:14:00,82.9,72.6,28.85,SSE,164,0.0,3.1,71,0.00,,SKC,0.00,VWS V14.00,2013-07-24 17:14:00,
2013-07-24 13:19:00,83.1,72.8,28.85,SSE,150,0.0,3.1,71,0.00,,SKC,0.00,VWS V14.00,2013-07-24 17:19:00,
2013-07-24 13:24:00,83.1,72.8,28.85,SSE,152,3.8,3.8,71,0.00,,SKC,0.00,VWS V14.00,2013-07-24 17:24:00,
2013-07-24 13:29:00,83.1,72.3,28.85,SSE,153,0.0,3.1,70,0.00,,SKC,0.00,VWS V14.00,2013-07-24 17:29:00,
2013-07-24 13:34:00,83.3,72.5,28.85,WNW,286,0.0,0.0,70,0.00,,SKC,0.00,VWS V14.00,2013-07-24 17:34:00,
2013-07-24 13:39:00,83.3,72.5,28.85,SE,135,0.0,0.0,70,0.00,,SKC,0.00,VWS V14.00,2013-07-24 17:39:00,
2013-07-24 13:44:00,83.1,71.9,28.85,SSW,208,0.0,0.0,69,0.00,,SKC,0.00,VWS V14.00,2013-07-24 17:44:00,
2013-07-24 13:49:00,82.9,71.7,28.85,SSW,208,0.0,0.0,69,0.00,,SKC,0.00,VWS V14.00,2013-07-24 17:49:00,
2013-07-24 13:54:00,82.9,71.7,28.85,SSW,206,0.0,0.0,69,0.00,,SKC,0.00,VWS V14.00,2013-07-24 17:54:00,
2013-07-24 13:59:00,82.8,71.1,28.85,South,187,0.0,0.0,68,0.00,,SKC,0.00,VWS V14.00,2013-07-24 17:59:00,
2013-07-24 14:04:00,82.6,71.0,28.85,South,187,0.0,0.0,68,0.00,,SKC,0.00,VWS V14.00,2013-07-24 18:04:00,
2013-07-24 14:09:00,82.6,71.0,28.85,South,187,0.0,0.0,68,0.00,,SKC,0.00,VWS V14.00,2013-07-24 18:09:00,
2013-07-24 14:14:00,82.8,71.1,28.85,ESE,121,0.0,0.0,68,0.00,,SKC,0.00,VWS V14.00,2013-07-24 18:14:00,
2013-07-24 14:19:00,82.8,71.1,28.82,ESE,106,0.0,0.0,68,0.00,,SKC,0.00,VWS V14.00,2013-07-24 18:19:00,
2013-07-24 14:24:00,82.8,71.1,28.82,ESE,112,3.8,3.8,68,0.00,,SKC,0.00,VWS V14.00,2013-07-24 18:24:00,
2013-07-24 14:29:00,82.6,71.0,28.82,ENE,70,0.0,3.1,68,0.00,,SKC,0.00,VWS V14.00,2013-07-24 18:29:00,
2013-07-24 14:34:00,82.8,71.1,28.82,ESE,117,0.0,0.0,68,0.00,,SKC,0.00,VWS V14.00,2013-07-24 18:34:00,
2013-07-24 14:39:00,82.8,71.1,28.82,ENE,67,0.0,3.1,68,0.00,,SKC,0.00,VWS V14.00,2013-07-24 18:39:00,
2013-07-24 14:44:00,82.8,71.1,28.82,WSW,252,0.0,4.9,68,0.00,,SKC,0.00,VWS V14.00,2013-07-24 18:44:00,
2013-07-24 14:49:00,82.8,71.1,28.82,SE,141,0.0,4.9,68,0.00,,SKC,0.00,VWS V14.00,2013-07-24 18:49:00,
2013-07-24 14:54:00,82.9,71.3,28.82,ESE,107,3.2,4.0,68,0.00,,SKC,0.00,VWS V14.00,2013-07-24 18:54:00,
2013-07-24 14:59:00,82.9,71.3,28.82,SE,133,0.0,4.0,68,0.00,,SKC,0.00,VWS V14.00,2013-07-24 18:59:00,
2013-07-24 15:05:00,82.8,71.1,28.82,SE,133,0.0,0.0,68,0.00,,SKC,0.00,VWS V14.00,2013-07-24 19:05:00,
2013-07-24 15:10:00,82.9,71.3,28.82,SE,133,0.0,0.0,68,0.00,,SKC,0.00,VWS V14.00,2013-07-24 19:10:00,
2013-07-24 15:15:00,82.9,71.3,28.82,SE,133,0.0,0.0,68,0.00,,SKC,0.00,VWS V14.00,2013-07-24 19:15:00,
2013-07-24 15:20:00,83.5,71.8,28.82,SE,138,0.0,0.0,68,0.00,,SKC,0.00,VWS V14.00,2013-07-24 19:20:00,
2013-07-24 15:25:00,84.2,72.1,28.82,South,189,0.0,3.1,67,0.00,,SKC,0.00,VWS V14.00,2013-07-24 19:25:00,
2013-07-24 15:30:00,84.6,72.4,28.82,SSE,166,0.0,4.0,67,0.00,,SKC,0.00,VWS V14.00,2013-07-24 19:30:00,
2013-07-24 15:35:00,84.9,72.8,28.82,SW,220,0.0,3.6,67,0.00,,SKC,0.00,VWS V14.00,2013-07-24 19:35:00,
2013-07-24 15:40:00,85.1,72.5,28.82,SSE,151,0.0,3.6,66,0.00,,SKC,0.00,VWS V14.00,2013-07-24 19:40:00,
2013-07-24 15:45:00,85.3,72.2,28.82,SSE,158,0.0,0.0,65,0.00,,SKC,0.00,VWS V14.00,2013-07-24 19:45:00,
2013-07-24 15:50:00,85.5,72.8,28.82,SSW,207,0.0,0.0,66,0.00,,SKC,0.00,VWS V14.00,2013-07-24 19:50:00,
2013-07-24 15:55:00,86.0,73.3,28.82,SSW,207,0.0,0.0,66,0.00,,SKC,0.00,VWS V14.00,2013-07-24 19:55:00,
2013-07-24 16:00:00,86.7,73.1,28.82,SSE,162,0.0,0.0,64,0.00,,SKC,0.00,VWS V14.00,2013-07-24 20:00:00,
2013-07-24 16:05:00,86.9,72.8,28.82,SSE,162,0.0,0.0,63,0.00,,SKC,0.00,VWS V14.00,2013-07-24 20:05:00,
2013-07-24 16:10:00,86.9,72.8,28.82,SSE,162,0.0,0.0,63,0.00,,SKC,0.00,VWS V14.00,2013-07-24 20:10:00,
2013-07-24 16:15:00,86.4,72.3,28.82,SSE,162,0.0,0.0,63,0.00,,SKC,0.00,VWS V14.00,2013-07-24 20:15:00,
2013-07-24 16:20:00,86.0,71.9,28.82,SSE,162,0.0,0.0,63,0.00,,SKC,0.00,VWS V14.00,2013-07-24 20:20:00,
2013-07-24 16:25:00,85.5,71.0,28.82,SE,145,0.0,0.0,62,0.00,,SKC,0.00,VWS V14.00,2013-07-24 20:25:00,
2013-07-24 16:30:00,84.9,70.5,28.82,SE,145,0.0,0.0,62,0.00,,SKC,0.00,VWS V14.00,2013-07-24 20:30:00,
2013-07-24 16:35:00,84.4,69.9,28.79,SE,145,0.0,0.0,62,0.00,,SKC,0.00,VWS V14.00,2013-07-24 20:35:00,
2013-07-24 16:40:00,84.4,69.9,28.79,SE,145,0.0,0.0,62,0.00,,SKC,0.00,VWS V14.00,2013-07-24 20:40:00,
2013-07-24 16:45:00,84.2,69.8,28.79,SE,145,0.0,0.0,62,0.00,,SKC,0.00,VWS V14.00,2013-07-24 20:45:00,
2013-07-24 16:50:00,84.0,69.6,28.79,SE,146,0.0,0.0,62,0.00,,SKC,0.00,VWS V14.00,2013-07-24 20:50:00,
2013-07-24 16:55:00,83.7,69.3,28.79,SE,146,0.0,0.0,62,0.00,,SKC,0.00,VWS V14.00,2013-07-24 20:55:00,
2013-07-24 17:00:00,83.5,69.1,28.79,SE,145,0.0,0.0,62,0.00,,SKC,0.00,VWS V14.00,2013-07-24 21:00:00,
2013-07-24 17:05:00,83.5,69.6,28.79,West,276,0.0,0.0,63,0.00,,SKC,0.00,VWS V14.00,2013-07-24 21:05:00,
2013-07-24 17:10:00,83.5,69.1,28.79,SW,230,0.0,0.0,62,0.00,,SKC,0.00,VWS V14.00,2013-07-24 21:10:00,
2013-07-24 17:15:00,83.3,68.5,28.79,SW,233,0.0,0.0,61,0.00,,SKC,0.00,VWS V14.00,2013-07-24 21:15:00,
2013-07-24 17:20:00,82.9,67.6,28.79,WSW,249,0.0,0.0,60,0.00,,SKC,0.00,VWS V14.00,2013-07-24 21:20:00,
2013-07-24 17:25:00,82.8,67.5,28.79,WSW,240,0.0,0.0,60,0.00,,SKC,0.00,VWS V14.00,2013-07-24 21:25:00,
2013-07-24 17:30:00,82.4,67.1,28.79,WNW,288,0.0,0.0,60,0.00,,SKC,0.00,VWS V14.00,2013-07-24 21:30:00,
2013-07-24 17:35:00,82.2,67.0,28.79,SSW,205,0.0,0.0,60,0.00,,SKC,0.00,VWS V14.00,2013-07-24 21:35:00,
2013-07-24 17:40:00,82.0,66.8,28.79,WNW,297,0.0,0.0,60,0.00,,SKC,0.00,VWS V14.00,2013-07-24 21:40:00,
2013-07-24 17:45:00,81.9,66.6,28.79,WNW,297,0.0,0.0,60,0.00,,SKC,0.00,VWS V14.00,2013-07-24 21:45:00,
2013-07-24 17:50:00,81.9,66.6,28.79,WNW,297,0.0,0.0,60,0.00,,SKC,0.00,VWS V14.00,2013-07-24 21:50:00,
2013-07-24 17:55:00,81.7,66.5,28.79,WNW,297,0.0,0.0,60,0.00,,SKC,0.00,VWS V14.00,2013-07-24 21:55:00,
2013-07-24 18:00:00,81.7,66.5,28.79,SE,130,0.0,0.0,60,0.00,,SKC,0.00,VWS V14.00,2013-07-24 22:00:00,
2013-07-24 18:05:00,81.7,66.9,28.79,SE,126,0.0,0.0,61,0.00,,SKC,0.00,VWS V14.00,2013-07-24 22:05:00,
2013-07-24 18:10:00,81.7,66.5,28.79,SE,137,0.0,0.0,60,0.00,,SKC,0.00,VWS V14.00,2013-07-24 22:10:00,
2013-07-24 18:15:00,81.7,66.5,28.79,SE,137,0.0,0.0,60,0.00,,SKC,0.00,VWS V14.00,2013-07-24 22:15:00,
2013-07-24 18:20:00,81.7,66.5,28.79,NNW,348,0.0,5.4,60,0.00,,SKC,0.00,VWS V14.00,2013-07-24 22:20:00,
2013-07-24 18:25:00,81.9,66.6,28.79,West,266,0.0,0.0,60,0.00,,SKC,0.00,VWS V14.00,2013-07-24 22:25:00,
2013-07-24 18:30:00,81.9,66.6,28.79,West,266,0.0,0.0,60,0.00,,SKC,0.00,VWS V14.00,2013-07-24 22:30:00,
2013-07-24 18:35:00,82.0,67.3,28.79,WNW,293,0.0,0.0,61,0.00,,SKC,0.00,VWS V14.00,2013-07-24 22:35:00,
2013-07-24 18:40:00,81.9,66.6,28.79,SE,126,0.0,0.0,60,0.00,,SKC,0.00,VWS V14.00,2013-07-24 22:40:00,
2013-07-24 18:45:00,81.7,66.5,28.79,West,280,0.0,2.2,60,0.00,,SKC,0.00,VWS V14.00,2013-07-24 22:45:00,
2013-07-24 18:50:00,81.0,65.3,28.82,NE,56,0.0,2.2,59,0.00,,SKC,0.00,VWS V14.00,2013-07-24 22:50:00,
2013-07-24 18:55:00,80.2,64.6,28.82,SE,130,0.0,2.7,59,0.00,,SKC,0.00,VWS V14.00,2013-07-24 22:55:00,
2013-07-24 19:00:00,79.5,63.5,28.82,North,10,0.0,0.0,58,0.00,,SKC,0.00,VWS V14.00,2013-07-24 23:00:00,
2013-07-24 19:05:00,79.0,63.4,28.79,South,175,0.0,0.0,59,0.00,,SKC,0.00,VWS V14.00,2013-07-24 23:05:00,
2013-07-24 19:10:00,78.8,62.3,28.79,East,85,0.0,0.0,57,0.00,,SKC,0.00,VWS V14.00,2013-07-24 23:10:00,
2013-07-24 19:15:00,78.6,62.6,28.79,East,84,0.0,0.0,58,0.00,,SKC,0.00,VWS V14.00,2013-07-24 23:15:00,
2013-07-24 19:20:00,78.6,62.6,28.82,East,85,0.0,0.0,58,0.00,,SKC,0.00,VWS V14.00,2013-07-24 23:20:00,
2013-07-24 19:25:00,78.4,62.9,28.82,East,84,0.0,0.0,59,0.00,,SKC,0.00,VWS V14.00,2013-07-24 23:25:00,
2013-07-24 19:30:00,78.3,62.8,28.82,East,84,0.0,0.0,59,0.00,,SKC,0.00,VWS V14.00,2013-07-24 23:30:00,
2013-07-24 19:35:00,78.3,62.8,28.82,East,85,0.0,0.0,59,0.00,,SKC,0.00,VWS V14.00,2013-07-24 23:35:00,
2013-07-24 19:40:00,78.1,62.6,28.82,East,85,0.0,0.0,59,0.00,,SKC,0.00,VWS V14.00,2013-07-24 23:40:00,
2013-07-24 19:45:00,77.9,62.4,28.82,East,85,0.0,0.0,59,0.00,,SKC,0.00,VWS V14.00,2013-07-24 23:45:00,
2013-07-24 19:50:00,77.5,62.1,28.82,East,84,0.0,0.0,59,0.00,,SKC,0.00,VWS V14.00,2013-07-24 23:50:00,
2013-07-24 19:55:00,77.4,61.9,28.82,East,84,0.0,0.0,59,0.00,,SKC,0.00,VWS V14.00,2013-07-24 23:55:00,
2013-07-24 20:00:00,77.2,61.8,28.82,East,84,0.0,0.0,59,0.00,,SKC,0.00,VWS V14.00,2013-07-25 00:00:00,
2013-07-24 20:05:00,77.0,61.6,28.82,East,84,0.0,0.0,59,0.00,,SKC,0.00,VWS V14.00,2013-07-25 00:05:00,
2013-07-24 20:10:00,76.8,61.9,28.82,East,85,0.0,0.0,60,0.00,,SKC,0.00,VWS V14.00,2013-07-25 00:10:00,
2013-07-24 20:15:00,76.5,61.6,28.82,East,85,0.0,0.0,60,0.00,,SKC,0.00,VWS V14.00,2013-07-25 00:15:00,
2013-07-24 20:20:00,76.3,61.4,28.82,East,85,0.0,0.0,60,0.00,,SKC,0.00,VWS V14.00,2013-07-25 00:20:00,
2013-07-24 20:26:00,76.1,61.7,28.82,East,85,0.0,0.0,61,0.00,,SKC,0.00,VWS V14.00,2013-07-25 00:26:00,
2013-07-24 20:31:00,75.9,61.5,28.82,East,85,0.0,0.0,61,0.00,,SKC,0.00,VWS V14.00,2013-07-25 00:31:00,
2013-07-24 20:36:00,75.6,61.2,28.85,East,85,0.0,0.0,61,0.00,,SKC,0.00,VWS V14.00,2013-07-25 00:36:00,
2013-07-24 20:41:00,75.6,61.2,28.85,East,85,0.0,0.0,61,0.00,,SKC,0.00,VWS V14.00,2013-07-25 00:41:00,
2013-07-24 20:46:00,75.6,61.2,28.85,East,84,0.0,0.0,61,0.00,,SKC,0.00,VWS V14.00,2013-07-25 00:46:00,
2013-07-24 20:51:00,75.6,61.2,28.85,East,85,0.0,0.0,61,0.00,,SKC,0.00,VWS V14.00,2013-07-25 00:51:00,
2013-07-24 20:56:00,75.4,61.5,28.85,East,85,0.0,0.0,62,0.00,,SKC,0.00,VWS V14.00,2013-07-25 00:56:00,
2013-07-24 21:01:00,75.2,61.3,28.85,East,85,0.0,0.0,62,0.00,,SKC,0.00,VWS V14.00,2013-07-25 01:01:00,
2013-07-24 21:06:00,75.2,61.3,28.85,East,85,0.0,0.0,62,0.00,,SKC,0.00,VWS V14.00,2013-07-25 01:06:00,
2013-07-24 21:11:00,75.0,61.6,28.85,East,85,0.0,0.0,63,0.00,,SKC,0.00,VWS V14.00,2013-07-25 01:11:00,
2013-07-24 21:16:00,75.0,62.0,28.85,East,85,0.0,0.0,64,0.00,,SKC,0.00,VWS V14.00,2013-07-25 01:16:00,
2013-07-24 21:21:00,75.0,62.0,28.85,East,84,0.0,0.0,64,0.00,,SKC,0.00,VWS V14.00,2013-07-25 01:21:00,
2013-07-24 21:26:00,75.0,62.0,28.85,East,85,0.0,0.0,64,0.00,,SKC,0.00,VWS V14.00,2013-07-25 01:26:00,
2013-07-24 21:31:00,74.8,62.3,28.85,SSW,207,0.0,0.0,65,0.00,,SKC,0.00,VWS V14.00,2013-07-25 01:31:00,
2013-07-24 21:36:00,74.8,62.3,28.85,NNE,20,0.0,0.0,65,0.00,,SKC,0.00,VWS V14.00,2013-07-25 01:36:00,
2013-07-24 21:41:00,74.8,62.3,28.85,NE,37,0.0,0.0,65,0.00,,SKC,0.00,VWS V14.00,2013-07-25 01:41:00,
2013-07-24 21:46:00,74.7,62.1,28.85,NE,37,0.0,0.0,65,0.00,,SKC,0.00,VWS V14.00,2013-07-25 01:46:00,
2013-07-24 21:51:00,74.7,62.1,28.85,NE,37,0.0,0.0,65,0.00,,SKC,0.00,VWS V14.00,2013-07-25 01:51:00,
2013-07-24 21:56:00,74.7,62.1,28.85,NE,37,0.0,0.0,65,0.00,,SKC,0.00,VWS V14.00,2013-07-25 01:56:00,
2013-07-24 22:06:00,74.5,62.4,28.85,NE,40,0.0,0.0,66,0.00,,SKC,0.00,VWS V14.00,2013-07-25 02:06:00,
2013-07-24 22:11:00,74.5,62.4,28.85,NE,40,0.0,0.0,66,0.00,,SKC,0.00,VWS V14.00,2013-07-25 02:11:00,
2013-07-24 22:16:00,74.3,62.2,28.85,NE,40,0.0,0.0,66,0.00,,SKC,0.00,VWS V14.00,2013-07-25 02:16:00,
2013-07-24 22:21:00,74.3,62.2,28.85,NE,40,0.0,0.0,66,0.00,,SKC,0.00,VWS V14.00,2013-07-25 02:21:00,
2013-07-24 22:26:00,74.3,62.2,28.85,NE,40,0.0,0.0,66,0.00,,SKC,0.00,VWS V14.00,2013-07-25 02:26:00,
2013-07-24 22:31:00,74.3,62.6,28.85,NE,40,0.0,0.0,67,0.00,,SKC,0.00,VWS V14.00,2013-07-25 02:31:00,
2013-07-24 22:36:00,74.3,62.6,28.85,NNE,23,0.0,0.0,67,0.00,,SKC,0.00,VWS V14.00,2013-07-25 02:36:00,
2013-07-24 22:41:00,74.3,62.6,28.85,NNE,23,0.0,0.0,67,0.00,,SKC,0.00,VWS V14.00,2013-07-25 02:41:00,
2013-07-24 22:46:00,74.3,62.6,28.85,SE,126,0.0,3.1,67,0.00,,SKC,0.00,VWS V14.00,2013-07-25 02:46:00,
2013-07-24 22:51:00,74.3,62.6,28.85,NNE,23,0.0,0.0,67,0.00,,SKC,0.00,VWS V14.00,2013-07-25 02:51:00,
2013-07-24 22:56:00,74.1,62.9,28.85,NNE,22,0.0,0.0,68,0.00,,SKC,0.00,VWS V14.00,2013-07-25 02:56:00,
2013-07-24 23:01:00,74.1,62.9,28.85,NNE,23,0.0,0.0,68,0.00,,SKC,0.00,VWS V14.00,2013-07-25 03:01:00,
2013-07-24 23:06:00,73.9,62.7,28.85,SSE,154,0.0,0.0,68,0.00,,SKC,0.00,VWS V14.00,2013-07-25 03:06:00,
2013-07-24 23:11:00,73.9,62.7,28.85,SSE,154,0.0,0.0,68,0.00,,SKC,0.00,VWS V14.00,2013-07-25 03:11:00,
2013-07-24 23:16:00,73.8,62.5,28.85,SSE,154,0.0,0.0,68,0.00,,SKC,0.00,VWS V14.00,2013-07-25 03:16:00,
2013-07-24 23:21:00,73.8,62.5,28.85,SSE,154,0.0,0.0,68,0.00,,SKC,0.00,VWS V14.00,2013-07-25 03:21:00,
2013-07-24 23:26:00,73.6,62.4,28.85,SSE,154,0.0,0.0,68,0.00,,SKC,0.00,VWS V14.00,2013-07-25 03:26:00,
2013-07-24 23:31:00,73.4,62.2,28.85,SSE,154,0.0,0.0,68,0.00,,SKC,0.00,VWS V14.00,2013-07-25 03:31:00,
2013-07-24 23:36:00,73.2,62.5,28.85,SSE,152,0.0,0.0,69,0.00,,SKC,0.00,VWS V14.00,2013-07-25 03:36:00,
2013-07-24 23:52:00,72.9,62.1,28.88,NE,49,0.0,0.0,69,0.00,,SKC,0.00,VWS V14.00,2013-07-25 03:52:00,
2013-07-24 23:57:00,72.9,62.1,28.88,NE,49,0.0,0.0,69,0.00,,SKC,0.00,VWS V14.00,2013-07-25 03:57:00,